EW9439 Weather Reports


Display with metric or nautical units.
time (UTC)temp
F
wind
direction
speed
MPH
gust
MPH
rain 1hr
in
rain 24hr
in
rain mn
in
humidity
%
barometer
mb
20211023233106 61 119 0.0 0.0 0.00 0.00 0.00 75 1015.0
20211023231652 62 119 0.0 0.0 0.00 0.00 0.00 74 1014.8
20211023230128 63 119 0.0 0.0 0.00 0.00 0.00 72 1015.0
20211023224700 64 119 0.0 0.0 0.00 0.00 0.00 68 1015.0
20211023223108 65 119 0.0 0.0 0.00 0.00 0.00 68 1014.8
20211023221558 66 119 0.0 0.0 0.00 0.00 0.00 66 1014.6
20211023220057 67 119 0.0 0.0 0.00 0.00 0.00 65 1014.4
20211023214624 67 119 0.0 0.0 0.00 0.00 0.00 65 1014.3
20211023213059 68 119 0.0 0.0 0.00 0.00 0.00 62 1014.2
20211023211559 69 119 0.0 0.0 0.00 0.00 0.00 61 1014.2
20211023210108 69 119 0.0 0.0 0.00 0.00 0.00 59 1014.3
20211023204622 69 119 0.0 0.0 0.00 0.00 0.00 61 1014.3
20211023203046 69 119 0.0 0.0 0.00 0.00 0.00 57 1014.4
20211023201640 69 119 0.0 0.0 0.00 0.00 0.00 54 1014.3
20211023200103 70 119 0.0 0.0 0.00 0.00 0.00 56 1014.3
20211023194620 69 119 0.0 0.0 0.00 0.00 0.00 59 1014.3
20211023193041 70 119 0.0 0.0 0.00 0.00 0.00 54 1014.2
20211023191603 70 119 0.0 0.0 0.00 0.00 0.00 55 1014.2
20211023190053 70 118 0.0 0.0 0.00 0.00 0.00 53 1014.3
20211023184544 70 118 0.0 0.0 0.00 0.00 0.00 52 1014.4
20211023183030 70 118 0.0 0.0 0.00 0.00 0.00 53 1014.6
20211023181527 70 116 0.0 0.0 0.00 0.00 0.00 53 1014.8
20211023180006 69 116 0.0 0.0 0.00 0.00 0.00 50 1014.8
20211023174514 69 116 0.0 0.0 0.00 0.00 0.00 53 1015.0
20211023173008 68 119 0.0 0.0 0.00 0.00 0.00 56 1015.3
20211023171526 67 122 0.0 0.0 0.00 0.00 0.00 58 1015.6
20211023170055 67 122 0.0 0.0 0.00 0.00 0.00 57 1015.9
20211023164603 66 122 0.0 0.0 0.00 0.00 0.00 61 1016.2
20211023163307 65 123 0.0 0.0 0.00 0.00 0.00 58 1016.3
20211023161643 64 123 0.0 0.0 0.00 0.00 0.00 61 1016.2
20211023160132 63 123 0.0 0.0 0.00 0.00 0.00 68 1016.3
20211023154709 62 123 0.0 0.0 0.00 0.00 0.00 65 1016.3
20211023153130 62 123 0.0 1.0 0.00 0.00 0.00 67 1016.2
20211023153001 62 123 0.0 1.0 0.00 0.00 0.00 65 1016.2
20211023151649 61 147 0.0 0.0 0.00 0.00 0.00 67 1016.1
20211023150122 59 123 0.0 0.0 0.00 0.00 0.00 73 1016.0
20211023144726 58 123 0.0 0.0 0.00 0.00 0.00 77 1015.9
20211023143137 56 123 0.0 0.0 0.00 0.00 0.00 79 1016.0
20211023141605 54 101 0.0 0.0 0.00 0.00 0.00 82 1016.0
20211023140056 53 134 0.0 0.0 0.00 0.00 0.00 87 1016.0
20211023134552 51 134 0.0 0.0 0.00 0.00 0.00 91 1015.8
20211023133053 50 134 0.0 0.0 0.00 0.00 0.00 95 1015.8
20211023131547 49 134 0.0 0.0 0.00 0.00 0.00 95 1015.8
20211023130104 48 134 0.0 0.0 0.00 0.00 0.00 96 1015.5
20211023124620 47 134 0.0 0.0 0.00 0.00 0.00 96 1015.4
20211023123103 47 134 0.0 0.0 0.00 0.00 0.00 96 1015.2
20211023121604 47 134 0.0 0.0 0.00 0.00 0.00 96 1015.0
20211023120107 46 134 0.0 0.0 0.00 0.00 0.00 95 1014.9
20211023114547 47 134 0.0 0.0 0.00 0.00 0.00 95 1014.8
20211023113100 47 134 0.0 0.0 0.00 0.00 0.00 95 1014.8
20211023111556 47 134 0.0 0.0 0.00 0.00 0.00 96 1014.6
20211023110041 47 134 0.0 0.0 0.00 0.00 0.00 95 1014.4
20211023104627 47 134 0.0 0.0 0.00 0.00 0.00 96 1014.3
20211023103037 47 134 0.0 0.0 0.00 0.00 0.00 96 1014.2
20211023101543 47 134 0.0 0.0 0.00 0.00 0.00 95 1014.1
20211023100033 47 134 0.0 0.0 0.00 0.00 0.00 95 1014.0
20211023094520 47 134 0.0 0.0 0.00 0.00 0.00 95 1014.0
20211023093052 47 134 0.0 0.0 0.00 0.00 0.00 96 1013.7
20211023091543 47 134 0.0 0.0 0.00 0.00 0.00 95 1013.7
20211023090043 47 134 0.0 0.0 0.00 0.01 0.00 95 1013.8
20211023084608 47 134 0.0 0.0 0.00 0.01 0.00 95 1013.8
20211023083052 47 134 0.0 0.0 0.00 0.01 0.00 95 1013.7
20211023081512 48 134 0.0 0.0 0.00 0.01 0.00 95 1013.7
20211023080010 48 134 0.0 0.0 0.00 0.01 0.00 94 1013.9
20211023074510 48 134 0.0 0.0 0.00 0.01 0.00 95 1013.9
20211023073009 49 134 0.0 0.0 0.00 0.01 0.00 94 1014.1
20211023071510 49 134 0.0 0.0 0.00 0.01 0.00 95 1014.1
20211023070022 49 134 0.0 0.0 0.00 0.01 0.00 95 1014.0
20211023063121 50 134 0.0 0.0 0.00 0.01 0.00 94 1014.0
20211023061615 50 134 0.0 0.0 0.00 0.01 0.00 94 1013.9
20211023060150 50 134 0.0 0.0 0.00 0.01 0.00 94 1013.9
20211023054630 51 134 0.0 0.0 0.00 0.01 0.00 94 1013.9
20211023053059 51 134 0.0 0.0 0.00 0.01 0.00 93 1014.0
20211023051553 52 134 0.0 0.0 0.00 0.01 0.00 93 1014.0
20211023050046 52 134 0.0 0.0 0.00 0.01 0.00 92 1014.2
20211023044610 53 134 0.0 0.0 0.00 0.01 0.00 92 1014.3
20211023043030 53 134 0.0 0.0 0.00 0.01 0.00 92 1014.4
20211023041617 54 134 0.0 0.0 0.00 0.01 0.00 92 1014.2
20211023040047 54 134 0.0 0.0 0.00 0.18 0.01 92 1014.2
20211023034534 55 134 0.0 0.0 0.00 0.18 0.01 93 1014.1
20211023033030 55 134 0.0 0.0 0.00 0.18 0.01 93 1014.2
20211023031521 55 134 0.0 0.0 0.00 0.18 0.01 93 1014.1
20211023030020 55 134 0.0 0.0 0.00 0.18 0.01 94 1014.2
20211023024517 55 134 0.0 0.0 0.00 0.18 0.01 94 1014.1
20211023023014 55 134 0.0 0.0 0.00 0.18 0.01 94 1014.1
20211023021516 56 134 0.0 0.0 0.00 0.18 0.01 93 1014.1
20211023020030 56 134 0.0 0.0 0.00 0.18 0.01 93 1013.9
20211023014522 56 134 0.0 0.0 0.00 0.18 0.01 92 1013.8
20211023013034 57 134 0.0 0.0 0.00 0.18 0.01 92 1013.8
20211023011513 57 134 0.0 0.0 0.00 0.18 0.01 91 1013.8
20211023010156 57 134 0.0 0.0 0.00 0.18 0.01 90 1013.5
20211023004640 58 134 0.0 0.0 0.00 0.18 0.01 90 1013.4
20211023003105 58 134 0.0 0.0 0.00 0.18 0.01 89 1013.3
20211023001618 59 134 0.0 0.0 0.00 0.18 0.01 88 1013.3
20211023000024 60 134 0.0 0.0 0.00 0.18 0.01 87 1013.2
20211022234533 60 134 0.0 0.0 0.00 0.18 0.01 85 1013.0